Home > Weather > Plymouth > Past weeks

Flag for United Kingdom Past Weather in Plymouth, England, United Kingdom — Yesterday and Last 2 Weeks

Now
59 °F

Passing clouds.


Feels Like: 57 °F
Forecast: 53 / 62 °F
Wind: 12 mph from Southwest

Location: Exeter Airport

Current Time: Jul 1, 2016 at 3:47:20 AM

Latest Report: Jul 1, 2016 at 2:50 AM


Visibility: N/A

Pressure: 29.80 "Hg

Humidity: 88%

Dew Point: 55 °F

Location of PlymouthLocation

Past Weather in Plymouth — Graph

°F

Plymouth Temperature Yesterday

Maximum temperature yesterday: 68 °F (at 1:50 PM)
Minimum temperature yesterday: 54 °F (at 5:20 AM)
Average temperature yesterday: 61 °F

High & Low Weather Summary for the Past Weeks

 TemperatureHumidityPressure
High72 °F (Jun 16, 2:20 PM)100% (Jun 19, 6:50 AM)30.27 "Hg (Jun 19, 6:50 AM)
Low45 °F (Jun 28, 5:50 AM)52% (Jun 24, 4:20 PM)29.50 "Hg (Jun 16, 5:50 AM)
Average60 °F81%29.98 "Hg
* Reported Jun 16 5:50 AM — Jul 1 2:50 AM, Plymouth, Weather by CustomWeather, © 2016

Note: Actual official high and low records may vary slightly from our data, if they occured in-between our weather recording intervals... More about our weather records

Advertising

Plymouth Weather History for the Previous 24 Hours

Scroll right to see more
 ConditionsComfort  
Time TempWeatherWind HumidityBarometerVisibility
2:50 AM
Fri, Jul 1
59 °FPassing clouds.12 mph88%29.80 "HgN/A
2:20 AM59 °FPassing clouds.10 mph88%29.80 "HgN/A
1:50 AM59 °FPassing clouds.9 mph88%29.80 "HgN/A
1:20 AM59 °FLight rain. Partly cloudy.9 mph88%29.80 "HgN/A
12:50 AM59 °FPassing clouds.9 mph88%29.80 "HgN/A
12:20 AM59 °FPassing clouds.12 mph88%29.80 "HgN/A
11:50 PM
Thu, Jun 30
59 °FPassing clouds.12 mph82%29.80 "HgN/A
11:20 PM61 °FPassing clouds.9 mph77%29.80 "HgN/A
10:50 PM61 °FPassing clouds.9 mph77%29.80 "HgN/A
10:20 PM61 °FPartly sunny.8 mph83%29.80 "HgN/A
9:50 PM61 °FPartly sunny.9 mph83%29.80 "HgN/A
9:20 PM61 °FPartly sunny.12 mph83%29.80 "HgN/A
8:50 PM61 °FPartly sunny.12 mph83%29.80 "HgN/A
8:20 PM61 °FPartly sunny.14 mph83%29.80 "HgN/A
7:50 PM61 °FPartly sunny.13 mph83%29.80 "HgN/A
7:20 PM61 °FPartly sunny.12 mph83%29.80 "HgN/A
6:50 PM63 °FPartly sunny.10 mph83%29.80 "HgN/A
6:20 PM63 °FPartly sunny.12 mph83%29.80 "HgN/A
5:50 PM63 °FPartly sunny.12 mph77%29.80 "HgN/A
5:20 PM63 °FPartly sunny.12 mph77%29.83 "HgN/A
4:50 PM63 °FPartly sunny.15 mph77%29.83 "HgN/A
4:20 PM64 °FPartly sunny.16 mph73%29.83 "HgN/A
3:50 PM64 °FScattered showers. Scattered clouds.12 mph78%29.83 "HgN/A
3:20 PM66 °FScattered showers. Scattered clouds.10 mph60%29.83 "HgN/A
2:50 PM68 °FScattered clouds.12 mph56%29.83 "HgN/A
2:20 PM66 °FScattered clouds.12 mph64%29.83 "HgN/A
1:50 PM68 °FScattered clouds.12 mph64%29.83 "HgN/A
1:20 PM66 °FScattered clouds.9 mph64%29.83 "HgN/A
12:50 PM66 °FScattered clouds.9 mph64%29.83 "HgN/A
12:20 PM66 °FScattered clouds.9 mph64%29.80 "HgN/A
11:50 AM66 °FScattered clouds.8 mph64%29.80 "HgN/A
11:20 AM64 °FScattered clouds.9 mph73%29.83 "HgN/A
10:50 AM64 °FScattered clouds.7 mph73%29.83 "HgN/A
10:20 AM63 °FScattered clouds.8 mph83%29.80 "HgN/A
9:50 AM61 °FScattered clouds.9 mph94%29.80 "HgN/A
9:20 AM61 °FScattered clouds.6 mph88%29.80 "HgN/A
8:50 AM59 °FScattered clouds.7 mph94%29.80 "HgN/A
8:20 AM57 °FScattered clouds.7 mph94%29.80 "HgN/A
7:50 AM57 °FScattered clouds.7 mph94%29.80 "HgN/A
7:20 AM57 °FScattered clouds.6 mph94%29.80 "HgN/A
6:50 AM55 °FScattered clouds.5 mph100%29.80 "HgN/A
6:20 AM55 °FScattered showers. Scattered clouds.6 mph100%29.77 "HgN/A
5:20 AM54 °FScattered showers. Passing clouds.2 mph100%29.77 "HgN/A
Weather by CustomWeather, © 2016

See weather overviewHow to use our weather pages